Regional Weather Roundup
Issued by NWS

Home | Current Version | Previous Version | Text Only | Print | Product List | Glossary Off
Versions: 1 2 3 4 5 6 7 8 9 10 11 12 13 14 15 16 17 18 19 20 21 22 23 24 25 26 27 28 29 30 31 32 33 34 35 36 37 38 39 40 41 42 43 44 45 46 47 48 49 50

000
ASUS43 KTOP 210459
RWRKS

WEATHER ROUNDUP FOR KANSAS
NATIONAL WEATHER SERVICE GOODLAND KS
1100 PM CST MON NOV 20 2017

NOTE:  "FAIR" INDICATES FEW OR NO CLOUDS BELOW 12,000 FEET WITH NO
SIGNIFICANT WEATHER AND/OR OBSTRUCTIONS TO VISIBILITY.

KSZ001>006-013>018-027>032-041>047-210600-
NORTHWEST KANSAS

CITY           SKY/WX    TMP DP  RH WIND       PRES   REMARKS
GOODLAND       CLOUDY    45  19  35 NW5       29.83R
HAYS           CLOUDY    49  21  33 NW6       29.76R
HILL CITY      CLOUDY    50  24  36 VRB3      29.77R
RUSSELL        CLOUDY    48  24  39 SW10      29.74R
$$

KSZ061>065-074>080-084>089-210600-
SOUTHWEST KANSAS

CITY           SKY/WX    TMP DP  RH WIND       PRES   REMARKS
DODGE CITY     CLOUDY    48  20  32 SW12      29.80R
GARDEN CITY    CLOUDY    45  19  35 NW6       29.81R
GREAT BEND     PTCLDY    43  24  47 SW7       29.79R
LIBERAL        CLOUDY    34  17  50 W8        29.80R
$$

KSZ066>073-081>083-090>101-210600-
SOUTHEAST KANSAS

CITY           SKY/WX    TMP DP  RH WIND       PRES   REMARKS
CHANUTE        CLOUDY    51  30  44 S13       29.84F
COFFEYVILLE    CLOUDY    51  31  46 S9        29.87F
HUTCHINSON     CLOUDY    50  30  46 SW12      29.77S
MEDICINE LODGE   N/A     44  29  55 CALM      29.80R
PARSONS        CLOUDY    52  31  44 S10       29.87F
WICHITA INTL   CLOUDY    48  32  53 S13       29.79F
WICHITA JABRA  CLOUDY    52  30  43 S18       29.78F
WICHITA MCCONL CLOUDY    51  29  42 SW16      29.79F
WINFIELD       CLOUDY    48  31  51 S9        29.83F
$$

KSZ007>012-019>026-033>040-048>060-102>105-210600-
NORTHEAST KANSAS

CITY           SKY/WX    TMP DP  RH WIND       PRES   REMARKS
CONCORDIA      CLOUDY    52  25  35 SW12      29.70R
EMPORIA        CLOUDY    51  29  42 S16       29.77F
LAWRENCE       CLEAR     53  30  41 S9        29.76S
MANHATTAN      CLOUDY    55  29  36 SW16      29.72S
OLATHE IND     CLEAR     51  30  44 S13       29.77F
OLATHE EXE     CLEAR     48  31  51 SW10      29.76F
SALINA         PTCLDY    54  28  36 S16       29.74R
TOPEKA BILLARD CLOUDY    55  30  38 SW10G20   29.74S
TOPEKA FORBES  CLOUDY    55  30  38 SW17G26   29.73S
$$




USA.gov is the U.S. government's official web portal to all federal, state and local government web resources and services.